BAW271 WSSS-EGLL

Flight info

Callsign BAW271
Flight time N/A
Altitude 30000
Route AROSO3A AROSO Y513 KALIL Y501 RINBA Y503 VPL P628 IGREX/N0517F320 P628 BOBET/N0517F340 P628 RK G202 ZB L750 ENRON/N0504F360 L750 RANAH B449 ETRAP B447 KRS B143 TUNEK A909 RODAR M11 REBLO UM11 CRM UL746 INB/N0504F380 UL746 ODERO DCT OPT DCT SOKRU DCT BEGLA DCT DEXIT DCT INBED DCT BOMBI DCT ADKUV DCT SOGRI DCT DENUT L608 LOGAN
Aircraft A388/J-SADE2E3FGHIJ3J4J5M1RWXY/LB1D1

Departure

Time 2026-05-04 21:51
Airport Singapore Changi Airport (WSSS)

Arrival

Time N/A
Airport London Heathrow Airport (EGLL)
Time Latitude Longitude Altitude Speed Heading
2026-05-04 21:32 1.36057 103.99240 30 ft 0 kts 290°
2026-05-04 21:37 1.36056 103.99242 29 ft 1 kts 290°
2026-05-04 21:38 1.36054 103.99248 28 ft 1 kts 290°
2026-05-04 21:38 1.36051 103.99254 29 ft 1 kts 290°
2026-05-04 21:38 1.36049 103.99260 30 ft 1 kts 290°
2026-05-04 21:38 1.36048 103.99265 30 ft 2 kts 290°
2026-05-04 21:39 1.36043 103.99281 28 ft 5 kts 285°
2026-05-04 21:39 1.36046 103.99314 28 ft 5 kts 243°
2026-05-04 21:39 1.36055 103.99325 27 ft 2 kts 230°
2026-05-04 21:39 1.36071 103.99337 27 ft 3 kts 209°
2026-05-04 21:40 1.36078 103.99340 27 ft 0 kts 206°
2026-05-04 21:41 1.36076 103.99340 27 ft 1 kts 206°
2026-05-04 21:41 1.36063 103.99334 27 ft 3 kts 194°
2026-05-04 21:41 1.36033 103.99326 28 ft 6 kts 196°
2026-05-04 21:41 1.35988 103.99312 30 ft 8 kts 200°
2026-05-04 21:42 1.35950 103.99314 30 ft 5 kts 146°
2026-05-04 21:42 1.35919 103.99351 30 ft 12 kts 122°
2026-05-04 21:42 1.35878 103.99438 30 ft 15 kts 114°
2026-05-04 21:42 1.35835 103.99526 30 ft 10 kts 144°
2026-05-04 21:43 1.35793 103.99527 31 ft 7 kts 193°
2026-05-04 21:43 1.35733 103.99506 31 ft 13 kts 202°
2026-05-04 21:43 1.35620 103.99460 31 ft 19 kts 202°
2026-05-04 21:43 1.35502 103.99411 31 ft 18 kts 202°
2026-05-04 21:44 1.35386 103.99363 31 ft 18 kts 202°
2026-05-04 21:44 1.35273 103.99317 31 ft 17 kts 202°
2026-05-04 21:44 1.35162 103.99269 31 ft 17 kts 205°
2026-05-04 21:44 1.35054 103.99220 31 ft 17 kts 203°
2026-05-04 21:45 1.34947 103.99176 31 ft 16 kts 202°
2026-05-04 21:45 1.34842 103.99132 31 ft 16 kts 202°
2026-05-04 21:45 1.34738 103.99090 31 ft 16 kts 202°
2026-05-04 21:45 1.34637 103.99048 32 ft 16 kts 202°
2026-05-04 21:46 1.34538 103.99007 32 ft 15 kts 202°
2026-05-04 21:46 1.34438 103.98966 32 ft 16 kts 202°
2026-05-04 21:46 1.34338 103.98921 32 ft 17 kts 205°
2026-05-04 21:46 1.34220 103.98869 32 ft 20 kts 203°
2026-05-04 21:47 1.34081 103.98811 31 ft 23 kts 203°
2026-05-04 21:47 1.33935 103.98749 31 ft 23 kts 202°
2026-05-04 21:47 1.33787 103.98688 31 ft 23 kts 202°
2026-05-04 21:47 1.33636 103.98625 31 ft 23 kts 202°
2026-05-04 21:48 1.33486 103.98561 31 ft 23 kts 203°
2026-05-04 21:48 1.33336 103.98497 31 ft 24 kts 203°
2026-05-04 21:48 1.33186 103.98432 31 ft 23 kts 203°
2026-05-04 21:48 1.33036 103.98368 31 ft 23 kts 198°
2026-05-04 21:49 1.32932 103.98404 33 ft 15 kts 119°
2026-05-04 21:49 1.32894 103.98485 35 ft 3 kts 91°
2026-05-04 21:49 1.32908 103.98507 35 ft 5 kts 31°
2026-05-04 21:49 1.32909 103.98507 35 ft 0 kts 25°
2026-05-04 21:50 1.32948 103.98525 35 ft 26 kts 24°
2026-05-04 21:50 1.33317 103.98682 34 ft 90 kts 23°
2026-05-04 21:50 1.34071 103.98998 37 ft 141 kts 23°
2026-05-04 21:50 1.35090 103.99431 34 ft 174 kts 22°
2026-05-04 21:51 1.36240 103.99897 303 ft 179 kts 22°
2026-05-04 21:51 1.37400 104.00378 579 ft 185 kts 22°
2026-05-04 21:51 1.38615 104.00898 647 ft 196 kts 23°
2026-05-04 21:51 1.39902 104.01452 713 ft 206 kts 23°
2026-05-04 21:52 1.41248 104.02028 783 ft 214 kts 23°
2026-05-04 21:52 1.42642 104.02620 843 ft 222 kts 23°
2026-05-04 21:52 1.44131 104.03251 949 ft 240 kts 23°
2026-05-04 21:52 1.45701 104.03915 1083 ft 257 kts 23°
2026-05-04 21:53 1.47391 104.04629 1524 ft 261 kts 23°
2026-05-04 21:53 1.49145 104.05085 1990 ft 264 kts
2026-05-04 21:53 1.50908 104.04713 2474 ft 265 kts 334°
2026-05-04 21:53 1.52551 104.03822 2989 ft 266 kts 329°
2026-05-04 21:54 1.54156 104.02879 3486 ft 268 kts 329°
2026-05-04 21:54 1.55779 104.01943 3996 ft 270 kts 330°
2026-05-04 21:54 1.57423 104.01023 4491 ft 272 kts 330°
2026-05-04 21:54 1.59092 104.00110 4993 ft 275 kts 331°
2026-05-04 21:55 1.60779 103.99197 5461 ft 277 kts 331°
2026-05-04 21:55 1.62463 103.98289 5954 ft 279 kts 331°
2026-05-04 21:55 1.64181 103.97363 6424 ft 281 kts 331°
2026-05-04 21:55 1.65906 103.96433 6856 ft 283 kts 331°
2026-05-04 21:56 1.67600 103.95520 7290 ft 285 kts 331°
2026-05-04 21:56 1.69401 103.94548 7747 ft 287 kts 331°